www.pogodaiklimat.ru

Погода и климат >> Архив погоды >> Парагвай >> Сан-Педро


ПОГОДА в Сан-Педро

  • Прогноз погоды в Сан-Педро
  • Монитор погоды в Сан-Педро

АРХИВ ПОГОДЫ в Сан-Педро

Время (UTC), дата Ветер
(напр.,м/с)
 
Видим.   Явления Облачность Т
(С)
Тd
(С)
f
(%)
Тe
(С)
Тes
(С)
Комфортность P
(гПа)
Po
(гПа)
Тmin
(С)
Tmax
(С)
R
(мм)
R24
(мм)
S
(см)
21 11.02 С 1 20 км 1/1 1000 м
[Cu med, cong]
+33.0 +22.6 54 +42 +44 опасность
перегрева
1000.7 991.7
00 12.02 штиль 0 20 км 4/4 900 м
[Cu med, cong]
+30.0 +22.7 65 +40 +40 очень
душно
1002.3 993.3 +36.0
03 12.02 штиль 0 20 км ясно +26.4 +21.5 74 +34 +34 очень
душно
1003.2 994.1
09 12.02 В 3 10 км гроза, ливневой дождь 10/10 600 м
[Cb cap]
+22.0 +20.7 92 +28 +28 душно 1009.9 1000.6 80
12 12.02 штиль 0 10 км гроза, ливневой дождь 10/10 600 м
[Cb cap]
+22.0 +21.9 99 +29 +29 очень
душно
1012.4 1003.1 +22.0 24
15 12.02 ЮЗ 1 15 км морось {гроза} 10/10 300 м
[St]
+23.0 +22.8 99 +32 +32 очень
душно
1014.9 1005.6 3
18 12.02 ЮЗ 2 20 км в посл. час дождь {морось, гроза} 10/10 600 м
[Sc]
+24.0 +22.6 92 +31 +31 очень
душно
1011.1 1001.9 5
21 12.02 ЮЗ 1 20 км 9/9 600 м
[Cu Sc]
+24.0 +22.5 91 +31 +32 очень
душно
1011.8 1002.6
00 13.02 Ю 1 20 км 5/4 1000 м
[Cu hum Ac cuf]
+23.8 +22.8 94 +31 +31 очень
душно
1012.4 1003.2 +30.0
03 13.02 штиль 0 20 км 5/3 900 м
[Cu hum Ac cuf]
+22.2 +21.8 98 +29 +29 очень
душно
1015.2 1005.0
09 13.02 Ю 1 20 км 6/4 900 м
[Cu hum Ac cuf]
+18.6 +17.8 95 +21 +21 комфорт 1012.1 1002.8
12 13.02 Ю 1 20 км 6/6 600 м
[Sc]
+22.0 +18.8 82 +27 +31 душно 1012.7 1003.5 +18.6 8
15 13.02 В 1 20 км 8/8 600 м
[Cu Sc]
+26.0 +19.8 69 +32 +37 очень
душно
1013.3 1004.2
18 13.02 Ю 2 20 км 8/8 1000 м
[Cu med, cong]
+28.0 +22.6 73 +37 +40 очень
душно
1009.8 1000.8
00 14.02 штиль 0 20 км ясно +26.0 +23.1 84 +35 +35 очень
душно
1008.2 999.0 +29.0
03 14.02 штиль 0 20 км 1/0
[Ac cuf]
+24.0 +22.6 92 +31 +31 очень
душно
1008.4 999.2
09 14.02 Ю 1 20 км 5/3 900 м
[Cu hum Ac und]
+23.0 +21.5 91 +31 +31 очень
душно
1006.6 997.4
12 14.02 Ю 1 20 км 10/10 600 м
[Sc]
+25.0 +22.2 84 +32 +32 очень
душно
1008.6 999.4 +21.8
15 14.02 ЮВ 1 15 км морось 10/10 300 м
[St]
+24.8 +23.6 93 +34 +34 очень
душно
1009.0 999.8 1
18 14.02 Ю 2 20 км в посл. час дождь {морось} 10/10 600 м
[Cu Sc]
+24.0 +22.5 91 +31 +31 очень
душно
1008.0 998.8 3
21 14.02 Ю 2 20 км 5/5 900 м
[Cu med, cong]
+28.0 +22.1 70 +36 +37 очень
душно
1006.3 997.3
00 15.02 штиль 0 20 км 4/1 1000 м
[Cu hum Ac cuf]
+24.0 +23.9 99 +33 +33 очень
душно
1006.9 997.7 +29.0
03 15.02 штиль 0 20 км 1/0 600 м
[Ac cuf]
+22.6 +21.9 96 +30 +30 очень
душно
1007.7 998.4
06 15.02 штиль 0 20 км 6/6 600 м
[Sc]
+21.6 +20.9 96 +27 +27 душно 1006.7 997.4
12 15.02 штиль 0 20 км 6/0 2000 м
[Ac und]
+24.4 +23.6 95 +33 +39 очень
душно
1008.1 998.8 +20.4 5
15 15.02 В 4 20 км 8/0 2000 м
[Ac und]
+27.4 +17.5 55 +32 +38 очень
душно
1008.4 999.2
18 15.02 штиль 0 20 км 6/6 800 м
[Sc]
+31.2 +14.5 36 +33 +41 жарко 1006.8 997.7
12 16.02 штиль 0 20 км 5/5 800 м
[Sc]
+24.6 +20.4 77 +30 +35 очень
душно
1008.2 998.9 +23.0
15 16.02 штиль 0 20 км 9/9 800 м
[Sc]
+29.8 +17.5 48 +34 +37 очень
душно
1007.5 998.4
18 16.02 С 4 20 км 9/9 800 м
[Sc]
+32.6 +15.8 36 +35 +36 душно 1006.1 997.1
21 16.02 штиль 0 20 км 10/10 600 м
[Sc]
+31.0 +16.7 42 +34 +34 душно 1005.3 996.2
00 17.02 штиль 0 20 км 4/0 2000 м
[Ac und]
+26.6 +21.5 74 +34 +34 очень
душно
1006.9 997.7 +32.6
03 17.02 штиль 0 20 км 10/10 800 м
[Sc]
+24.0 +20.9 83 +30 +30 очень
душно
1006.9 997.6
15 17.02 штиль 0 20 км 9/9 800 м
[Sc]
+28.6 +20.1 60 +35 +38 очень
душно
1006.5 997.3
18 17.02 штиль 0 20 км 5/5 800 м
[Sc]
+32.4 +17.5 41 +36 +47 очень
душно
1005.2 996.2
21 17.02 штиль 0 20 км 5/5 1000 м
[Sc]
+32.6 +15.9 37 +35 +36 душно 1003.5 994.5
00 18.02 штиль 0 20 км 4/0 2000 м
[Ac lent]
+24.0 +20.9 83 +30 +30 очень
душно
1004.8 995.5 +32.6
03 18.02 штиль 0 20 км 5/0 2000 м
[Ac und]
+22.0 +21.2 95 +28 +28 душно 1007.5 998.5
09 18.02 штиль 0 10 км дымка ясно +22.8 +21.6 93 +30 +30 очень
душно
1007.9 998.5
12 18.02 штиль 0 20 км ясно +24.0 +20.9 83 +30 +40 очень
душно
1008.2 998.9 +22.0
18 18.02 штиль 0 20 км 8/8 1000 м
[Sc]
+33.0 +19.4 45 +39 +43 очень
душно
1004.0 995.0

 

Местоположение метеостанции Сан-Педро (Парагвай): широта -24.06 долгота -57.08 высота над уровнем моря 80 м.

В архиве по умолчанию представлена погода в Сан-Педро за последнюю неделю. Архивные данные за месяц целиком и за предыдущие месяцы, начиная с января 2011 года, Вы можете получить, выбрав интересующий диапазон дат из раскрывающегося списка и нажав кнопку "Ввод!".


*Определитесь, кто Вы:
робот инопланетянин человек

Внимание! Время в таблицах - всемирное. Для получения местного времени необходимо прибавить поправку, которая равна -4 ч.

Смотрите также архив погоды в соседних городах и на ближайших метеорологических станциях:

Погода в Консепсьоне (Парагвай) (76 км)
Погода в Сан Эстанислао (Парагвай) (93 км)
Погода в Асунсьоне (Парагвай) (139 км)
Погода в Коронель-Овьедо (Парагвай) (171 км)
Погода в Парагуари (Парагвай) (175 км)
Погода в Грал Бругуез (Парагвай) (194 км)
Погода в Вильяррике (Парагвай) (199 км)
Погода в Посо Колорадо (Парагвай) (200 км)
Погода в Сети-Кедасе (Мату-Гросу-ду-Сул, Бразилия) (210 км)
Погода в Пуэрто-Касадо (Парагвай) (213 км)

Пояснения к столбцам:

Ветер - указаны скорость ветра в м/с - средняя за 10 мин, порывы в срок и между сроками (в фигурных скобках) и направление, откуда дует ветер: С - северный, СВ - северо-восточный, В - восточный, ЮВ - юго-восточный, Ю - южный, ЮЗ - юго-западный, З - западный, СЗ - северо-западный.
Видимость - горизонтальная дальность видимости в метрах или километрах. При видимости от 1 до 10 км при отсутствии осадков обычно наблюдается дымка, при ухудшении видимости до 1 км и менее - туман. В сухую погоду видимость может ухудшаться дымом, пылью или мглою.
Явления - указаны атмосферные явления, наблюдавшиеся в срок или в последний час перед сроком; фигурными скобками обозначены явления, наблюдавшиеся между сроками (за 1-3 часа до срока); квадратными скобками обозначены град или гололедные отложения с указанием их диаметра в мм.
Облачность - указаны через наклонную черту общая и нижняя облачность в баллах и высота нижней границы облаков в метрах; квадратными скобками обозначены формы облаков: Ci - перистые, Cs - перисто-слоистые, Cc - перисто-кучевые, Ac - высококучевые, As - высокослоистые, Sc - слоисто-кучевые, Ns - слоисто-дождевые, Cu - кучевые, Cb - кучево-дождевые. Подробнее классификацию облаков см. в Атласе облаков (PDF).
T - Температура воздуха - температура, измеренная на высоте 2 м над землей.
Td - Температура точки росы - температура, при понижении до которой содержащийся в воздухе водяной пар достигнет насыщения.
f - Относительная влажность воздуха - влажноcть воздуха, измеренная на высоте 2 м над землей.
Te - Эффективная температура - температура, которую ощущает одетый по сезону человек в тени. Характеристика душности погоды. При расчете учитывается влияние влажности воздуха и скорости ветра на теплоощущения человека.
Tes - Эффективная температура на солнце - температура, которую ощущает человек, с поправкой на солнечный нагрев. Характеристика знойности погоды. Зависит от высоты солнца над горизонтом, облачности и скорости ветра. Ночью, в пасмурную погоду, а также при ветре 12 м/с и более поправка равна нулю.
P - Атмосферное давление - приведенное к уровню моря атмосферное давление.
Po - Атмосферное давление - измеренное на уровне метеостанции атмосферное давление.
Tmin - Минимальная температура - минимум температуры воздуха на высоте 2 м над землей.
Tmax - Максимальная температура - максимум температуры воздуха на высоте 2 м над землей.
R - Количество осадков - Количество выпавших осадков за период времени, мм. При наведении курсора мыши на число - период времени, за который выпало указанное количество осадков.
R24 - Количество осадков - Количество выпавших осадков за 24 часа, мм.
S - Снежный покров - Высота снежного покрова, см. При наведении курсора мыши на число - состояние снежного покрова и степень покрытия местности в баллах.